Flag for Canada Weather past 2 weeks in Brandon, Manitoba, Canada

Now
39 °F

Partly sunny.


Feels Like: 33 °F
Forecast: 30 / 63 °F
Wind: 9 mph from Southeast

Location: Brandon


UV Index: 3 (Moderate)

Visibility: 15 mi


Pressure: 30.05 "Hg

Humidity: 75%

Dew point: 32 °F

Location of BrandonLocation

Historic Weather in Brandon

°F

Brandon temperature yesterday

Maximum temperature yesterday: 41 °F (at 9:52 AM)
Minimum temperature yesterday: 32 °F (at 10:00 PM)
Average temperature yesterday: 37 °F

Past Weeks' High & Low Weather Summary

 TemperatureHumidityPressure
High48 °F (Apr 8, 7:00 PM)100% (Apr 8, 1:00 AM)30.48 "Hg (Apr 8, 1:00 AM)
Low10 °F (Apr 15, 3:00 AM)39% (Apr 18, 2:00 PM)29.42 "Hg (Apr 9, 1:00 PM)
Average29 °F76%30.03 "Hg
* Reported Apr 5 9:00 AM — Apr 20 9:00 AM, Brandon, Weather by CustomWeather, © 2014

Note: Actual official high and low records may vary slightly from our data, if they occured in-between our weather recording intervals... More about our weather records

Advertising

Historic Weather Conditions — Data for Previous 24 hours

 ConditionsComfort  
Time TempWeatherWind HumidityBarometerVisibility
9:00 AM
Apr 20
34 °FPartly sunny.6 mph93%30.06 "Hg15 mi
8:00 AM32 °FPartly sunny.3 mph93%30.06 "Hg15 mi
7:00 AM28 °FClear.3 mph100%30.06 "Hg15 mi
6:00 AM27 °FClear.2 mph100%30.05 "Hg15 mi
5:00 AM30 °FClear.5 mph93%30.05 "Hg15 mi
4:00 AM30 °FPassing clouds.8 mph93%30.05 "Hg15 mi
3:00 AM30 °FPassing clouds.8 mph100%30.04 "Hg15 mi
2:00 AM32 °FPassing clouds.8 mph93%30.04 "Hg15 mi
1:00 AM32 °FPassing clouds.6 mph93%30.03 "Hg15 mi
12:00 AM34 °FPassing clouds.7 mph87%30.02 "Hg15 mi
11:00 PM
Apr 19
36 °FPassing clouds.6 mph87%30.02 "Hg15 mi
10:00 PM32 °FPassing clouds.6 mph93%30.01 "Hg15 mi
9:00 PM34 °FPartly sunny.6 mph93%30.00 "Hg15 mi
8:00 PM37 °FPartly sunny.15 mph75%29.98 "Hg15 mi
7:00 PM39 °FPartly sunny.23 mph75%29.97 "Hg15 mi
6:00 PM41 °FOvercast.23 mph76%29.95 "Hg15 mi
5:00 PM39 °FOvercast.22 mph81%29.92 "Hg15 mi
4:00 PM41 °FOvercast.16 mph81%29.89 "Hg15 mi
3:00 PM41 °FOvercast.25 mph81%29.85 "Hg15 mi
2:00 PM41 °FOvercast.26 mph81%29.81 "Hg15 mi
1:00 PM41 °FOvercast.26 mph81%29.77 "Hg15 mi
12:00 PM41 °FLight rain. Overcast.20 mph93%29.73 "Hg15 mi
11:00 AM41 °FMostly cloudy.25 mph87%29.70 "Hg15 mi
10:47 AM41 °FMore clouds than sun.20 mph87%29.69 "Hg15 mi
10:00 AM41 °FLight rain. Broken clouds.16 mph87%29.69 "Hg15 mi
Weather by CustomWeather, © 2014

See weather overview